Location: Corralito
(14.1667°N, 87.1833°W)
Time: 20:40:07
(UTC+00:00)

SL-16 R/B - Pass Details

Date: 07 June 2020
Orbit: 839 x 850 km, 71.0° (Epoch: 13 July)

Event Time Altitude Azimuth Distance (km) Brightness Sun altitude
Exits shadow 10:40:42 - 209° (SSW) 2,825 4.4 -9.4°
Reaches altitude 10° 10:41:44 10° 212° (SSW) 2,447 4.1 -9.1°
Maximum altitude 10:47:10 51° 287° (WNW) 1,041 2.4 -8.0°
Drops below altitude 10° 10:52:37 10° 3° (N) 2,452 5.0 -6.8°
Sets 10:55:08 0° 8° (N) 3,389 5.9 -6.2°
